Location: Nashville
(36.1660°N, 86.7840°W)
Time: 21:35:34
(UTC-06:00)

Vanguard 3 - Visible Passes

Search period start: 22 January 2022 00:00
Search period end: 01 February 2022 00:00
Orbit: 508 x 3260 km, 33.3° (Epoch: 22 January)

Date Brightness Start Highest point End Pass type
(mag) Time Alt. Az. Time Alt. Az. Time Alt. Az.
23 Jan 9.0 18:05:19 10° SW 18:06:59 12° SSW 18:08:39 10° S visible
29 Jan 12.1 06:04:26 10° SSE 06:11:41 13° SE 06:18:13 10° ESE visible
31 Jan 11.9 05:43:19 10° S 05:53:49 17° SE 06:03:08 10° ESE visible
